Weather History for KLNP - December, 2012

Change the Weather History Date:

Sunday, December 16, 2012

  Actual Average Record
Temperature  
Mean Temperature 50 °F -  
Max Temperature 55 °F 42 °F 64 °F (2006)
Min Temperature 46 °F 25 °F 17 °F (2004)
Degree Days  
Heating Degree Days 14    
Moisture  
Dew Point 49 °F    
Average Humidity 94    
Maximum Humidity 100    
Minimum Humidity 77    
Precipitation  
Precipitation 0.03 in - - ()
Sea Level Pressure  
Sea Level Pressure 29.91 in    
Wind  
Wind Speed 11 mph (SSW)    
Max Wind Speed 22 mph    
Max Gust Speed 29 mph    
Visibility 10 miles    
Events Rain    
Averages and records for this station are not official NWS values.
T = Trace of Precipitation, MM = Missing Value Source: NWS Daily Summary

Daily Weather History Graph

Daily Weather History Graph

Search for Another Location

Airport or City:

Trip Planner

Search our weather history database for the weather conditions in past years. The results will help you decide how hot, cold, wet, or windy it might be!

Date:

Astronomy

Dec. 16, 2012 Rise Set
Actual Time 7:37 AM EST 5:15 PM EST
Civil Twilight 7:08 AM EST 5:44 PM EST
Nautical Twilight 6:35 AM EST 6:16 PM EST
Astronomical Twilight 6:03 AM EST 6:48 PM EST
Moon 10:13 AM EST (12/16) 9:23 PM EST (12/16)
Length of Visible Light 10h 36m
Length of Day
9h 37m
Waxing Crescent, 16% of the Moon is Illuminated
Dec 16
Waxing Crescent
Dec 20
First Quarter
Dec 28
Full
Jan 4
Last Quarter
Jan 11
New

Hourly Weather History & Observations

Time (EST) Temp. Windchill Dew Point Humidity Pressure Visibility Wind Dir Wind Speed Gust Speed Precip Events Conditions
12:15 AM 46.4 °F 41.1 °F 44.6 °F 93% 29.99 in 10.0 mi SW 11.5 mph - 0.01 in Rain Light Rain
12:35 AM 46.4 °F 41.9 °F 46.4 °F 100% 29.98 in 10.0 mi SW 9.2 mph - 0.01 in Rain Light Rain
12:55 AM 46.4 °F 39.5 °F 44.6 °F 93% 30.00 in 7.0 mi SW 17.3 mph 20.7 mph 0.02 in Rain Rain
1:15 AM 46.4 °F 41.5 °F 46.4 °F 100% 29.98 in 7.0 mi SSW 10.4 mph - N/A Rain Light Rain
1:55 AM 48.2 °F - 44.6 °F 87% 29.98 in 10.0 mi SW 8.1 mph - N/A   Overcast
2:15 AM 46.4 °F 41.9 °F 44.6 °F 93% 29.99 in 10.0 mi SW 9.2 mph - N/A   Overcast
2:35 AM 46.4 °F 44.3 °F 46.4 °F 100% 30.00 in 10.0 mi SW 4.6 mph - N/A   Overcast
2:55 AM 46.4 °F 44.3 °F 46.4 °F 100% 29.98 in 10.0 mi SW 4.6 mph - N/A   Overcast
3:15 AM 46.4 °F 43.5 °F 46.4 °F 100% 29.98 in 10.0 mi SW 5.8 mph - N/A   Drizzle
3:55 AM 48.2 °F - 48.2 °F 100% 29.97 in 10.0 mi South 4.6 mph - N/A   Overcast
4:15 AM 48.2 °F - 48.2 °F 100% 29.97 in 10.0 mi SSE 4.6 mph - N/A   Overcast
4:35 AM 46.4 °F 43.5 °F 46.4 °F 100% 29.96 in 10.0 mi South 5.8 mph - N/A   Overcast
4:55 AM 48.2 °F - 48.2 °F 100% 29.95 in 10.0 mi South 10.4 mph - N/A   Overcast
5:15 AM 46.4 °F 42.9 °F 46.4 °F 100% 29.96 in 10.0 mi SSE 6.9 mph - N/A   Overcast
5:35 AM 46.4 °F 44.3 °F 46.4 °F 100% 29.96 in 10.0 mi South 4.6 mph - N/A   Overcast
5:55 AM 46.4 °F 42.4 °F 46.4 °F 100% 29.96 in 10.0 mi South 8.1 mph - N/A   Overcast
6:15 AM 48.2 °F - 48.2 °F 100% 29.95 in 10.0 mi South 9.2 mph - N/A   Overcast
6:35 AM 48.2 °F - 48.2 °F 100% 29.95 in 10.0 mi South 8.1 mph - N/A   Overcast
6:55 AM 48.2 °F - 48.2 °F 100% 29.95 in 10.0 mi South 10.4 mph - N/A   Overcast
7:15 AM 48.2 °F - 48.2 °F 100% 29.95 in 10.0 mi SSE 10.4 mph - N/A   Overcast
7:35 AM 50.0 °F - 50.0 °F 100% 29.94 in 10.0 mi South 6.9 mph - N/A   Overcast
7:55 AM 48.2 °F - 48.2 °F 100% 29.93 in 10.0 mi South 10.4 mph 17.3 mph N/A   Overcast
8:15 AM 48.2 °F - 48.2 °F 100% 29.94 in 10.0 mi SSE 10.4 mph - N/A   Overcast
8:35 AM 50.0 °F - 50.0 °F 100% 29.95 in 10.0 mi South 8.1 mph - N/A   Overcast
8:55 AM 50.0 °F - 50.0 °F 100% 29.94 in 10.0 mi South 10.4 mph 18.4 mph N/A   Overcast
9:15 AM 50.0 °F - 50.0 °F 100% 29.94 in 5.0 mi South 12.7 mph 18.4 mph N/A   Overcast
9:35 AM 50.0 °F - 50.0 °F 100% 29.94 in 5.0 mi South 10.4 mph 17.3 mph N/A   Overcast
9:55 AM 50.0 °F - 50.0 °F 100% 29.95 in 10.0 mi South 9.2 mph 20.7 mph N/A   Overcast
10:15 AM 50.0 °F - 50.0 °F 100% 29.96 in 5.0 mi South 9.2 mph - N/A   Overcast
10:35 AM 50.0 °F - 50.0 °F 100% 29.91 in 2.0 mi South 21.9 mph 26.5 mph 0.01 in Rain Rain
10:55 AM 51.8 °F - 51.8 °F 100% 29.93 in 10.0 mi SSW 16.1 mph 23.0 mph 0.01 in   Overcast
11:15 AM 51.8 °F - 51.8 °F 100% 29.95 in 10.0 mi WSW 10.4 mph 21.9 mph N/A   Overcast
11:35 AM 53.6 °F - 53.6 °F 100% 29.92 in 10.0 mi SSW 13.8 mph 20.7 mph N/A   Overcast
11:55 AM 51.8 °F - 51.8 °F 100% 29.93 in 10.0 mi SW 9.2 mph 17.3 mph N/A   Overcast
12:15 PM 53.6 °F - 53.6 °F 100% 29.91 in 10.0 mi SSW 13.8 mph 23.0 mph N/A   Overcast
12:35 PM 53.6 °F - 53.6 °F 100% 29.89 in 10.0 mi SSW 13.8 mph 25.3 mph N/A   Overcast
12:55 PM 53.6 °F - 53.6 °F 100% 29.88 in 10.0 mi South 9.2 mph 24.2 mph N/A   Overcast
1:15 PM 53.6 °F - 53.6 °F 100% 29.88 in 10.0 mi SSW 18.4 mph 24.2 mph N/A   Overcast
1:35 PM 53.6 °F - 53.6 °F 100% 29.87 in 10.0 mi South 11.5 mph 21.9 mph N/A   Overcast
1:55 PM 53.6 °F - 53.6 °F 100% 29.88 in 10.0 mi SSW 20.7 mph 27.6 mph N/A   Overcast
2:15 PM 53.6 °F - 53.6 °F 100% 29.88 in 10.0 mi SSW 15.0 mph 25.3 mph N/A   Overcast
2:35 PM 53.6 °F - 53.6 °F 100% 29.87 in 10.0 mi SSW 20.7 mph 25.3 mph N/A   Overcast
2:55 PM 53.6 °F - 51.8 °F 94% 29.89 in 10.0 mi SSW 19.6 mph 27.6 mph N/A   Overcast
3:15 PM 53.6 °F - 53.6 °F 100% 29.90 in 10.0 mi SW 13.8 mph 21.9 mph N/A   Overcast
3:35 PM 53.6 °F - 53.6 °F 100% 29.88 in 10.0 mi SSW 11.5 mph 19.6 mph N/A   Overcast
3:55 PM 55.4 °F - 51.8 °F 88% 29.83 in 10.0 mi South 16.1 mph 21.9 mph N/A   Overcast
4:15 PM 53.6 °F - 51.8 °F 94% 29.82 in 10.0 mi SSW 18.4 mph 25.3 mph N/A   Overcast
4:35 PM 53.6 °F - 51.8 °F 94% 29.82 in 10.0 mi South 13.8 mph 24.2 mph N/A   Overcast
4:55 PM 53.6 °F - 51.8 °F 94% 29.84 in 10.0 mi SSW 16.1 mph 23.0 mph N/A   Overcast
5:15 PM 53.6 °F - 51.8 °F 94% 29.86 in 10.0 mi SW 19.6 mph 24.2 mph N/A   Overcast
5:35 PM 53.6 °F - 51.8 °F 94% 29.84 in 10.0 mi South 15.0 mph 21.9 mph N/A   Overcast
5:55 PM 53.6 °F - 51.8 °F 94% 29.84 in 10.0 mi SSW 15.0 mph 23.0 mph N/A   Overcast
6:15 PM 53.6 °F - 51.8 °F 94% 29.84 in 10.0 mi SSW 19.6 mph 26.5 mph N/A   Overcast
6:35 PM 53.6 °F - 48.2 °F 82% 29.84 in 10.0 mi SSW 19.6 mph 25.3 mph N/A   Mostly Cloudy
6:55 PM 53.6 °F - 48.2 °F 82% 29.85 in 10.0 mi SW 15.0 mph - N/A   Overcast
7:15 PM 53.6 °F - 46.4 °F 77% 29.86 in 10.0 mi SSW 17.3 mph 23.0 mph N/A   Overcast
7:35 PM 53.6 °F - 46.4 °F 77% 29.85 in 10.0 mi SSW 15.0 mph 28.8 mph N/A   Overcast
7:55 PM 53.6 °F - 46.4 °F 77% 29.86 in 10.0 mi SSW 16.1 mph 23.0 mph N/A   Overcast
8:15 PM 53.6 °F - 46.4 °F 77% 29.86 in 10.0 mi SSW 20.7 mph - N/A   Overcast
8:35 PM 53.6 °F - 46.4 °F 77% 29.87 in 10.0 mi SSW 17.3 mph 23.0 mph N/A   Overcast
8:55 PM 53.6 °F - 46.4 °F 77% 29.88 in 10.0 mi SSW 16.1 mph 25.3 mph N/A   Light Drizzle
9:15 PM 53.6 °F - 46.4 °F 77% 29.88 in 10.0 mi SSW 16.1 mph 26.5 mph N/A Rain Light Rain
9:35 PM 51.8 °F - 46.4 °F 82% 29.90 in 10.0 mi SW 15.0 mph 24.2 mph N/A   Drizzle
9:55 PM 51.8 °F - 46.4 °F 82% 29.89 in 10.0 mi SSW 12.7 mph - N/A   Overcast
10:15 PM 51.8 °F - 46.4 °F 82% 29.88 in 10.0 mi SSW 13.8 mph 20.7 mph N/A   Overcast
10:35 PM 51.8 °F - 46.4 °F 82% 29.85 in 10.0 mi South 12.7 mph 25.3 mph N/A   Mostly Cloudy
10:55 PM 51.8 °F - 46.4 °F 82% 29.84 in 10.0 mi SSW 13.8 mph - N/A   Mostly Cloudy
11:15 PM 50.0 °F - 46.4 °F 87% 29.86 in 10.0 mi South 12.7 mph 19.6 mph N/A   Mostly Cloudy
11:35 PM 50.0 °F - 46.4 °F 87% 29.86 in 10.0 mi SSW 13.8 mph - N/A   Mostly Cloudy
11:55 PM 50.0 °F - 46.4 °F 87% 29.83 in 10.0 mi South 10.4 mph - N/A   Scattered Clouds